Flag for Brazil Weather past 2 weeks in Manaus, Amazonas, Brazil

Now
77 °F

Clear.


Feels Like: 78 °F
Forecast: 75 / 86 °F
Wind: 2 mph from East

Location: Manaus Aeroporto

Current Time: Dec 18, 2014 at 10:29:11 PM

Latest Report: Dec 18, 2014 at 10:00 PM


Visibility: 10 mi

Pressure: 29.83 "Hg

Humidity: 89%

Dew point: 73 °F

Location of ManausLocation

Historic Weather in Manaus — Graph

°F

Manaus temperature yesterday

Maximum temperature yesterday: 90 °F (at 3:00 PM)
Minimum temperature yesterday: 75 °F (at 3:00 AM)
Average temperature yesterday: 81 °F

Past Weeks' High & Low Weather Summary

 TemperatureHumidityPressure
High93 °F (Dec 4, 1:00 PM)94% (Dec 6, 1:00 AM)29.98 "Hg (Dec 6, 1:00 AM)
Low72 °F (Dec 16, 1:00 AM)47% (Dec 4, 1:00 PM)29.68 "Hg (Dec 9, 5:00 PM)
Average80 °F81%29.83 "Hg
* Reported Dec 3 9:00 PM — Dec 18 9:00 PM, Manaus, Weather by CustomWeather, © 2014

Note: Actual official high and low records may vary slightly from our data, if they occured in-between our weather recording intervals... More about our weather records

Advertising

Manaus weather history for previous 24 hours

 ConditionsComfort  
Time TempWeatherWind HumidityBarometerVisibility
9:00 PM
Dec 18
77 °FClear.No wind89%29.80 "Hg10 mi
8:00 PM77 °FPassing clouds.3 mph89%29.80 "HgN/A
7:00 PM77 °FPassing clouds.No wind89%29.77 "HgN/A
6:00 PM77 °FScattered clouds.3 mph89%29.77 "HgN/A
5:00 PM79 °FScattered clouds.3 mph84%29.74 "HgN/A
4:00 PM77 °FPartly sunny.5 mph89%29.74 "HgN/A
3:00 PM77 °FBroken clouds.7 mph89%29.74 "HgN/A
2:00 PM79 °FBroken clouds.9 mph84%29.80 "HgN/A
1:00 PM79 °FBroken clouds.5 mph79%29.83 "HgN/A
12:00 PM77 °FThunderstorms. Broken clouds.9 mph83%N/AN/A
11:00 AM86 °FThunderstorms. Broken clouds.3 mph66%29.86 "HgN/A
10:00 AM84 °FBroken clouds.3 mph74%29.89 "HgN/A
9:00 AM84 °FPartly sunny.3 mph74%29.89 "HgN/A
8:00 AM84 °FPartly sunny.2 mph74%29.89 "HgN/A
7:00 AM79 °FPartly sunny.2 mph89%29.86 "HgN/A
6:00 AM79 °FSunny.2 mph84%29.83 "Hg10 mi
5:00 AM79 °FPassing clouds.2 mph84%29.80 "HgN/A
4:00 AM79 °FClear.No wind84%29.80 "Hg10 mi
3:00 AM79 °FClear.2 mph84%29.80 "Hg10 mi
2:00 AM79 °FClear.2 mph84%29.80 "Hg10 mi
1:00 AM79 °FClear.2 mph84%29.83 "Hg10 mi
12:00 AM79 °FClear.No wind84%29.83 "Hg10 mi
11:00 PM
Dec 17
79 °FClear.2 mph84%29.86 "Hg10 mi
10:00 PM81 °FClear.2 mph79%29.86 "Hg10 mi
Weather by CustomWeather, © 2014

See weather overviewHow to use our weather pages